Location: *
(43.9905°S, 176.4941°W)
Time: 06:07:38
(UTC+00:00)

H-2A R/B - Pass Details

Date: 08 December 2019
Orbit: 733 x 837 km, 98.2° (Epoch: 19 January)

Event Time Altitude Azimuth Distance (km) Brightness Sun altitude
Rises 09:52:25 0° 179° (S) 3,419 6.5 -19.1°
Reaches altitude 10° 09:55:17 10° 194° (SSW) 2,484 5.8 -19.3°
Maximum altitude 09:59:22 22° 241° (WSW) 1,786 4.5 -19.6°
Drops below altitude 10° 10:03:26 10° 290° (WNW) 2,463 4.7 -19.9°
Sets 10:06:17 0° 304° (NW) 3,382 5.2 -20.1°
